GW5574 Weather Reports


Display with metric or nautical units.
time (UTC)temp
F
wind
direction
speed
MPH
gust
MPH
rain 1hr
in
rain 24hr
in
rain mn
in
humidity
%
barometer
mb
20260504231524 80 219 2.0 8.0 0.00 0.05 0.05 48 1001.0
20260504230020 80 219 3.0 7.0 0.00 0.05 0.05 47 1001.2
20260504224527 80 229 3.0 8.0 0.00 0.05 0.05 48 1001.2
20260504223027 80 259 4.0 10.0 0.00 0.05 0.05 46 1001.2
20260504221513 80 208 4.0 7.0 0.00 0.05 0.05 45 1001.4
20260504220021 80 220 4.0 11.0 0.00 0.05 0.05 48 1001.4
20260504214522 80 283 4.0 12.0 0.00 0.05 0.05 48 1001.4
20260504213027 80 195 4.0 12.0 0.00 0.05 0.05 47 1001.5
20260504211529 80 207 5.0 11.0 0.00 0.05 0.05 47 1001.6
20260504210014 80 206 4.0 10.0 0.00 0.05 0.05 46 1001.7
20260504204518 80 203 4.0 11.0 0.00 0.05 0.05 48 1001.7
20260504203031 80 214 3.0 11.0 0.00 0.05 0.05 47 1001.8
20260504201528 80 257 3.0 8.0 0.00 0.05 0.05 48 1002.0
20260504200028 79 225 4.0 11.0 0.00 0.05 0.05 48 1002.1
20260504194528 79 226 3.0 14.0 0.00 0.05 0.05 50 1002.4
20260504193022 79 199 4.0 13.0 0.00 0.05 0.05 50 1002.5
20260504191529 78 225 5.0 12.0 0.00 0.05 0.05 52 1002.6
20260504190029 78 219 5.0 11.0 0.00 0.05 0.05 49 1002.6
20260504184533 78 143 3.0 8.0 0.00 0.05 0.05 53 1002.4
20260504183030 77 247 3.0 9.0 0.00 0.05 0.05 54 1002.4
20260504181524 77 218 4.0 9.0 0.00 0.05 0.05 53 1002.7
20260504180032 76 224 6.0 10.0 0.00 0.05 0.05 53 1002.7
20260504174525 76 136 7.0 14.0 0.00 0.05 0.05 51 1002.8
20260504173026 76 207 3.0 10.0 0.00 0.05 0.05 55 1002.9
20260504171530 76 207 4.0 12.0 0.00 0.05 0.05 53 1003.1
20260504081512 54 235 0.0 1.0 0.01 0.04 0.04 93 1007.0
20260504050024 55 231 0.0 2.0 0.00 0.00 0.00 83 1008.6
20260504044527 56 8 0.0 1.0 0.00 0.00 0.00 80 1008.2
20260504043015 56 8 0.0 1.0 0.00 0.00 0.00 82 1008.5
20260504041520 56 325 0.0 0.0 0.00 0.00 0.00 81 1008.6
20260504040024 56 325 0.0 0.0 0.00 0.00 0.00 80 1008.7
20260504034539 57 325 0.0 0.0 0.00 0.00 0.00 78 1008.8
20260504033029 57 325 0.0 0.0 0.00 0.00 0.00 77 1009.0
20260504031518 58 325 0.0 0.0 0.00 0.00 0.00 76 1009.1
20260504030029 59 325 0.0 0.0 0.00 0.00 0.00 71 1009.0
20260504024522 59 325 0.0 0.0 0.00 0.00 0.00 70 1008.9
20260504023028 61 324 0.0 0.0 0.00 0.00 0.00 66 1008.8
20260504021527 62 325 0.0 0.0 0.00 0.00 0.00 65 1008.8
20260504020020 62 325 0.0 0.0 0.00 0.00 0.00 61 1008.7
20260504014505 64 325 0.0 0.0 0.00 0.00 0.00 60 1008.9
20260504013006 64 325 0.0 0.0 0.00 0.00 0.00 58 1008.5
20260504011510 66 325 0.0 2.0 0.00 0.00 0.00 56 1008.8
20260504010016 65 340 0.0 2.0 0.00 0.00 0.00 58 1008.6
20260504004522 65 351 0.0 0.0 0.00 0.00 0.00 58 1008.7
20260504003023 66 351 0.0 1.0 0.00 0.00 0.00 57 1008.7
20260504001504 67 348 0.0 1.0 0.00 0.00 0.00 56 1008.9
20260504000010 68 348 0.0 1.0 0.00 0.00 0.00 53 1008.9
20260503234518 69 89 0.0 2.0 0.00 0.00 0.00 51 1008.5
20260503233022 70 34 0.0 2.0 0.00 0.00 0.00 53 1008.8